Location: Rottenacker
(48.2350°N, 9.6886°E)
Time: 19:22:12
(UTC+01:00)

Tiangong 2 - Visible Passes

Search period start: 23 November 2017 00:00
Search period end: 03 December 2017 00:00
Orbit: 386 x 392 km, 42.8° (Epoch: 22 November)

Date Brightness Start Highest point End Pass type
(mag) Time Alt. Az. Time Alt. Az. Time Alt. Az.
27 Nov 4.0 06:50:02 10° SSW 06:52:03 16° SSE 06:54:05 10° ESE visible
28 Nov 4.2 05:53:07 10° S 05:54:05 11° SSE 05:55:02 10° SE visible
29 Nov 3.4 06:29:40 10° SW 06:32:11 21° SSE 06:34:41 10° ESE visible
30 Nov 3.6 05:33:25 15° S 05:34:08 16° SSE 05:36:13 10° ESE visible
30 Nov 2.9 07:07:34 10° WSW 07:10:25 29° S 07:13:16 10° ESE visible
01 Dec 2.9 06:10:28 16° SW 06:12:17 26° S 06:15:03 10° ESE visible
02 Dec 3.6 05:15:06 19° SE 05:15:06 19° SE 05:16:44 10° ESE visible
02 Dec 2.7 06:47:41 10° WSW 06:50:33 30° S 06:53:25 10° ESE visible
